Tracking 35237 objects as of 5-Sep-2026
HD Live streaming from Space Station
objects crossing your sky now

CZ-4B DEB


CZ-4B DEB is no longer on orbit


NORAD ID: 46483
Int'l Code: 2020-067F
Launch date: September 27, 2020
Source: People's Republic of China (PRC)
Launch site: Taiyaun Space Center, China (TSC)
Decay date: 2025-02-04

Note: This is SATELLITE DEBRIS
Your satellite tracking list
Your tracking list is empty




NASA's NSSDC Master Catalog

Two Line Element Set (TLE):
1 46483U 20067F   25030.37615339  .03907863  27349-5  22208-2 0  9999
2 46483  97.9294 184.1521 0011951 341.6384  18.4469 16.18960428239028
Source of the keplerian elements: AFSPC